TimeEDT,TemperatureF,Dew PointF,Humidity,Sea Level PressureIn,VisibilityMPH,Wind Direction,Wind SpeedMPH,Gust SpeedMPH,PrecipitationIn,Events,Conditions,WindDirDegrees,DateUTC
12:14 AM,51.8,50.0,94,30.02,2.5,Calm,Calm,-,0.01,Rain,Light Rain,0,2008-10-25 04:14:00
12:22 AM,51.8,50.0,94,30.02,3.0,Calm,Calm,-,0.02,Rain,Light Rain,0,2008-10-25 04:22:00
12:54 AM,51.1,51.1,100,30.00,3.0,Calm,Calm,-,0.04,Rain,Light Rain,0,2008-10-25 04:54:00
1:16 AM,51.8,51.8,100,30.01,2.5,Calm,Calm,-,0.02,Rain,Light Rain,0,2008-10-25 05:16:00
1:29 AM,51.8,51.8,100,30.00,3.0,Calm,Calm,-,0.04,Rain,Light Rain,0,2008-10-25 05:29:00
1:54 AM,51.1,51.1,100,29.98,3.0,Calm,Calm,-,0.06,Rain,Light Rain,0,2008-10-25 05:54:00
2:06 AM,51.8,51.8,100,29.99,4.0,Calm,Calm,-,0.01,Rain,Light Rain,0,2008-10-25 06:06:00
2:39 AM,51.8,51.8,100,29.99,4.0,Calm,Calm,-,0.01,Rain,Light Rain,0,2008-10-25 06:39:00
2:54 AM,51.1,51.1,100,29.97,3.0,Calm,Calm,-,0.02,Rain,Light Rain,0,2008-10-25 06:54:00
3:05 AM,51.8,51.8,100,29.98,2.5,Calm,Calm,-,0.01,Rain,Rain,0,2008-10-25 07:05:00
3:10 AM,51.8,51.8,100,29.98,2.0,Calm,Calm,-,0.02,Rain,Light Rain,0,2008-10-25 07:10:00
3:20 AM,51.8,51.8,100,29.98,5.0,Calm,Calm,-,0.02,Rain,Light Rain,0,2008-10-25 07:20:00
3:43 AM,51.8,51.8,100,29.97,5.0,Calm,Calm,-,0.03,,Overcast,0,2008-10-25 07:43:00
3:54 AM,51.1,51.1,100,29.95,5.0,Calm,Calm,-,0.03,Rain,Light Rain,0,2008-10-25 07:54:00
4:10 AM,51.8,51.8,100,29.97,2.5,Calm,Calm,-,0.01,Rain,Light Rain,0,2008-10-25 08:10:00
4:18 AM,51.8,51.8,100,29.96,4.0,Calm,Calm,-,0.01,Rain,Light Rain,0,2008-10-25 08:18:00
4:41 AM,51.8,51.8,100,29.95,5.0,Calm,Calm,-,0.01,,Overcast,0,2008-10-25 08:41:00
4:54 AM,51.1,51.1,100,29.93,4.0,Calm,Calm,-,0.01,,Overcast,0,2008-10-25 08:54:00
5:32 AM,51.8,51.8,100,29.96,4.0,Calm,Calm,-,N/A,,Overcast,0,2008-10-25 09:32:00
5:54 AM,52.0,51.1,97,29.94,6.0,Calm,Calm,-,N/A,,Overcast,0,2008-10-25 09:54:00
6:01 AM,51.8,51.8,100,29.95,9.0,Calm,Calm,-,N/A,,Overcast,0,2008-10-25 10:01:00
6:15 AM,51.8,51.8,100,29.96,10.0,Calm,Calm,-,N/A,,Overcast,0,2008-10-25 10:15:00
6:31 AM,51.8,51.8,100,29.96,2.5,Calm,Calm,-,N/A,,Overcast,0,2008-10-25 10:31:00
6:54 AM,52.0,51.1,97,29.94,8.0,North,6.9,-,N/A,,Overcast,350,2008-10-25 10:54:00
7:07 AM,51.8,51.8,100,29.96,5.0,NNW,8.1,-,N/A,,Overcast,330,2008-10-25 11:07:00
7:39 AM,51.8,51.8,100,29.96,8.0,NNW,12.7,-,N/A,,Overcast,340,2008-10-25 11:39:00
7:54 AM,52.0,51.1,97,29.94,9.0,NNW,11.5,-,N/A,,Overcast,330,2008-10-25 11:54:00
8:02 AM,51.8,51.8,100,29.96,5.0,NNW,10.4,-,N/A,,Overcast,340,2008-10-25 12:02:00
8:10 AM,51.8,51.8,100,29.96,5.0,NNW,12.7,-,N/A,,Overcast,340,2008-10-25 12:10:00
8:54 AM,53.1,51.1,93,29.95,5.0,NNW,15.0,-,N/A,,Overcast,330,2008-10-25 12:54:00
8:59 AM,53.6,51.8,94,29.97,10.0,NNW,12.7,-,N/A,,Overcast,340,2008-10-25 12:59:00
9:54 AM,53.1,50.0,89,29.96,10.0,North,12.7,21.9,N/A,,Overcast,350,2008-10-25 13:54:00
10:54 AM,53.1,46.9,80,29.97,10.0,NNW,20.7,27.6,N/A,,Overcast,340,2008-10-25 14:54:00
11:24 AM,55.4,46.4,72,29.98,10.0,NNW,19.6,28.8,N/A,,Scattered Clouds,340,2008-10-25 15:24:00
11:54 AM,55.0,46.0,72,29.96,10.0,NNW,20.7,26.5,N/A,,Clear,340,2008-10-25 15:54:00
12:47 PM,53.6,46.4,77,29.98,10.0,North,15.0,-,N/A,,Mostly Cloudy,350,2008-10-25 16:47:00
12:54 PM,54.0,46.0,75,29.96,10.0,NNW,16.1,23.0,N/A,,Mostly Cloudy,340,2008-10-25 16:54:00
1:32 PM,55.4,46.4,72,29.96,10.0,North,13.8,25.3,N/A,,Scattered Clouds,350,2008-10-25 17:32:00
1:54 PM,57.0,45.0,64,29.92,10.0,North,17.3,24.2,N/A,,Clear,350,2008-10-25 17:54:00
2:54 PM,57.9,43.0,58,29.91,10.0,NNW,18.4,26.5,N/A,,Scattered Clouds,340,2008-10-25 18:54:00
3:54 PM,57.0,42.1,57,29.91,10.0,North,11.5,20.7,N/A,,Partly Cloudy,360,2008-10-25 19:54:00
4:54 PM,57.0,41.0,55,29.91,10.0,North,11.5,20.7,N/A,,Clear,350,2008-10-25 20:54:00
5:54 PM,55.9,39.9,55,29.91,10.0,NNW,9.2,-,N/A,,Clear,330,2008-10-25 21:54:00
6:54 PM,52.0,41.0,66,29.92,10.0,NNW,11.5,-,N/A,,Clear,340,2008-10-25 22:54:00
7:54 PM,51.1,41.0,68,29.96,10.0,North,6.9,-,N/A,,Clear,350,2008-10-25 23:54:00
8:54 PM,48.9,41.0,74,29.97,10.0,North,6.9,-,N/A,,Clear,350,2008-10-26 00:54:00
9:54 PM,44.1,39.9,85,29.99,10.0,NW,4.6,-,N/A,,Clear,320,2008-10-26 01:54:00
10:54 PM,43.0,39.9,89,30.00,10.0,North,3.5,-,N/A,,Clear,350,2008-10-26 02:54:00
11:54 PM,42.1,39.9,92,30.01,10.0,NNW,9.2,-,N/A,,Clear,330,2008-10-26 03:54:00